FLOCK 3K-10 (43905 NORAD) Tracking and Keplerian Element Data

This shows tracking and keplerian element data for the satellite.

Feedback or suggestion? Click here.




ElementValue
Catalog43905
NameFLOCK 3K-10
Epoch Orbit394
Epoch Day21.97910979
Epoch Year2019
RAAN291.1844
Inclination97.2991
Eccentricity0.0023063
Argument of Perigee149.5006
Mean Anonmoly339.0604
Mean Motion15.23816911
Decay Rate2.758E-05
L11 43905U 18111AF 19021.97910979 .00002758 00000-0 11661-3 0 9997
L22 43905 97.2991 291.1844 0023063 149.5006 339.0604 15.23816911 3946

Live tracking and technical data element details for FLOCK 3K-10 (NORAD 43905). FLOCK 3K-10 can be tracked NOW for your location showing map with azimuth and elevation plus other details from your city location.

Track the satellite on the map from your city or location and see movement details for azimuth, elevation, latitude, longitude, range, height, and movement on the map or in text.







IsCatalogInMostPopularTable: catalog: 43905, numindb: 34
Update: records affected: 1



GetName: 43905 FLOCK 3K-10

Hit Count: updated at: Wed, 23 Jan 2019 02:40:19 GMT